| time (UTC) | temp F | wind direction | speed MPH | gust MPH | rain 1hr in | rain 24hr in | rain mn in | humidity % | barometer mb |
| 20260506121304 | 60 | 241 | 7.0 | 24.0 | 0.00 | 0.05 | 0.01 | 63 | 1015.6 |
| 20260506120804 | 60 | 277 | 12.0 | 23.0 | 0.00 | 0.05 | 0.01 | 62 | 1015.6 |
| 20260506120303 | 60 | 274 | 10.0 | 23.0 | 0.00 | 0.05 | 0.01 | 63 | 1015.4 |
| 20260506115803 | 59 | 266 | 9.0 | 15.0 | 0.00 | 0.05 | 0.01 | 63 | 1015.5 |
| 20260506115307 | 59 | 281 | 9.0 | 25.0 | 0.00 | 0.05 | 0.01 | 64 | 1015.4 |
| 20260506114804 | 60 | 262 | 7.0 | 25.0 | 0.00 | 0.05 | 0.01 | 63 | 1015.3 |
| 20260506114304 | 60 | 284 | 12.0 | 23.0 | 0.00 | 0.05 | 0.01 | 63 | 1015.3 |
| 20260506113804 | 60 | 256 | 8.0 | 22.0 | 0.00 | 0.05 | 0.01 | 64 | 1015.2 |
| 20260506113304 | 60 | 267 | 7.0 | 20.0 | 0.00 | 0.04 | 0.01 | 64 | 1015.2 |
| 20260506112804 | 60 | 260 | 10.0 | 22.0 | 0.00 | 0.05 | 0.01 | 63 | 1015.1 |
| 20260506112306 | 60 | 266 | 6.0 | 26.0 | 0.00 | 0.05 | 0.01 | 63 | 1015.2 |
| 20260506111804 | 60 | 239 | 7.0 | 26.0 | 0.00 | 0.05 | 0.01 | 63 | 1015.1 |
| 20260506111304 | 60 | 242 | 9.0 | 25.0 | 0.00 | 0.05 | 0.01 | 63 | 1015.1 |
| 20260506110803 | 60 | 276 | 9.0 | 21.0 | 0.00 | 0.05 | 0.01 | 63 | 1015.1 |
| 20260506110303 | 60 | 277 | 12.0 | 28.0 | 0.00 | 0.05 | 0.01 | 62 | 1015.0 |
| 20260506105803 | 60 | 249 | 9.0 | 22.0 | 0.00 | 0.05 | 0.01 | 64 | 1015.0 |
| 20260506105305 | 60 | 259 | 10.0 | 25.0 | 0.00 | 0.05 | 0.01 | 63 | 1015.0 |
| 20260506104804 | 60 | 299 | 10.0 | 28.0 | 0.00 | 0.05 | 0.01 | 63 | 1015.0 |
| 20260506104303 | 60 | 289 | 10.0 | 26.0 | 0.00 | 0.05 | 0.01 | 63 | 1014.6 |
| 20260506103804 | 60 | 217 | 13.0 | 29.0 | 0.00 | 0.05 | 0.01 | 63 | 1014.5 |
| 20260506103304 | 60 | 276 | 13.0 | 23.0 | 0.00 | 0.05 | 0.01 | 62 | 1014.8 |
| 20260506102804 | 60 | 281 | 11.0 | 25.0 | 0.00 | 0.05 | 0.01 | 62 | 1014.6 |
| 20260506102305 | 60 | 260 | 7.0 | 26.0 | 0.00 | 0.05 | 0.01 | 62 | 1014.7 |
| 20260506101804 | 60 | 269 | 10.0 | 25.0 | 0.00 | 0.05 | 0.01 | 61 | 1014.7 |
| 20260506100804 | 60 | 274 | 10.0 | 26.0 | 0.00 | 0.05 | 0.01 | 62 | 1014.5 |
| 20260506100303 | 60 | 288 | 12.0 | 28.0 | 0.00 | 0.05 | 0.01 | 61 | 1014.4 |
| 20260506095804 | 60 | 259 | 12.0 | 28.0 | 0.00 | 0.05 | 0.01 | 61 | 1014.5 |
| 20260506095305 | 60 | 261 | 11.0 | 31.0 | 0.00 | 0.05 | 0.01 | 60 | 1014.4 |
| 20260506094804 | 60 | 253 | 15.0 | 31.0 | 0.00 | 0.05 | 0.01 | 62 | 1014.6 |
| 20260506094304 | 60 | 273 | 13.0 | 25.0 | 0.00 | 0.05 | 0.01 | 61 | 1014.4 |
| 20260506093804 | 60 | 259 | 15.0 | 28.0 | 0.00 | 0.05 | 0.01 | 61 | 1014.4 |
| 20260506093304 | 60 | 276 | 16.0 | 32.0 | 0.00 | 0.05 | 0.01 | 61 | 1014.3 |
| 20260506092306 | 60 | 277 | 14.0 | 28.0 | 0.00 | 0.05 | 0.01 | 61 | 1014.4 |
| 20260506091804 | 60 | 269 | 15.0 | 29.0 | 0.00 | 0.05 | 0.01 | 61 | 1014.5 |
| 20260506090804 | 60 | 275 | 16.0 | 28.0 | 0.00 | 0.05 | 0.01 | 61 | 1014.4 |
| 20260506090303 | 60 | 264 | 17.0 | 28.0 | 0.00 | 0.05 | 0.01 | 61 | 1014.5 |
| 20260506085803 | 60 | 264 | 17.0 | 31.0 | 0.00 | 0.05 | 0.01 | 61 | 1014.4 |
| 20260506085305 | 60 | 266 | 15.0 | 28.0 | 0.00 | 0.05 | 0.01 | 61 | 1014.4 |
| 20260506084304 | 60 | 262 | 14.0 | 28.0 | 0.00 | 0.05 | 0.01 | 61 | 1014.3 |
| 20260506083803 | 60 | 263 | 20.0 | 32.0 | 0.00 | 0.05 | 0.01 | 60 | 1014.1 |
| 20260506083304 | 60 | 261 | 20.0 | 35.0 | 0.00 | 0.05 | 0.01 | 60 | 1013.9 |
| 20260506082803 | 60 | 259 | 20.0 | 31.0 | 0.00 | 0.05 | 0.01 | 60 | 1014.1 |
| 20260506082305 | 60 | 262 | 17.0 | 37.0 | 0.00 | 0.05 | 0.01 | 61 | 1014.2 |
| 20260506081803 | 60 | 261 | 15.0 | 31.0 | 0.00 | 0.05 | 0.01 | 60 | 1014.0 |
| 20260506081304 | 60 | 287 | 17.0 | 37.0 | 0.00 | 0.05 | 0.01 | 60 | 1014.0 |
| 20260506080804 | 60 | 276 | 17.0 | 31.0 | 0.00 | 0.05 | 0.01 | 61 | 1013.9 |
| 20260506073304 | 60 | 279 | 20.0 | 29.0 | 0.01 | 0.04 | 0.00 | 59 | 1013.6 |
| 20260506072803 | 60 | 256 | 17.0 | 31.0 | 0.00 | 0.04 | 0.00 | 60 | 1013.7 |
| 20260506070804 | 60 | 277 | 18.0 | 33.0 | 0.01 | 0.04 | 0.00 | 59 | 1013.6 |
| 20260506070304 | 60 | 268 | 20.0 | 37.0 | 0.01 | 0.04 | 0.00 | 60 | 1013.6 |
| 20260506061304 | 60 | 269 | 16.0 | 31.0 | 0.00 | 0.04 | 0.04 | 59 | 1013.4 |
| 20260506051304 | 60 | 270 | 20.0 | 35.0 | 0.00 | 0.03 | 0.03 | 59 | 1012.9 |
| 20260506043803 | 60 | 275 | 14.0 | 37.0 | 0.00 | 0.03 | 0.03 | 59 | 1012.8 |
| 20260506043303 | 60 | 278 | 16.0 | 31.0 | 0.00 | 0.03 | 0.03 | 59 | 1012.7 |
| 20260506042804 | 60 | 279 | 18.0 | 32.0 | 0.01 | 0.03 | 0.03 | 59 | 1012.6 |
| 20260506041804 | 60 | 262 | 14.0 | 33.0 | 0.01 | 0.03 | 0.03 | 60 | 1012.6 |
| 20260506041305 | 60 | 280 | 15.0 | 25.0 | 0.01 | 0.03 | 0.03 | 60 | 1012.6 |
| 20260506034303 | 60 | 275 | 17.0 | 32.0 | 0.01 | 0.03 | 0.03 | 56 | 1012.1 |
| 20260506033804 | 60 | 289 | 17.0 | 29.0 | 0.01 | 0.03 | 0.03 | 58 | 1012.1 |
| 20260506033304 | 61 | 258 | 16.0 | 31.0 | 0.00 | 0.03 | 0.03 | 58 | 1011.8 |
| 20260506032803 | 61 | 262 | 18.0 | 33.0 | 0.00 | 0.03 | 0.03 | 55 | 1011.9 |
| 20260506032306 | 61 | 280 | 18.0 | 32.0 | 0.00 | 0.02 | 0.02 | 56 | 1011.9 |
| 20260506031804 | 61 | 278 | 16.0 | 35.0 | 0.00 | 0.02 | 0.02 | 56 | 1011.6 |
| 20260506031304 | 61 | 261 | 18.0 | 33.0 | 0.00 | 0.02 | 0.02 | 56 | 1011.6 |
| 20260506030804 | 61 | 254 | 15.0 | 30.0 | 0.00 | 0.02 | 0.02 | 56 | 1011.7 |
| 20260506030304 | 61 | 274 | 14.0 | 29.0 | 0.00 | 0.02 | 0.02 | 55 | 1011.6 |
| 20260506015306 | 64 | 277 | 15.0 | 32.0 | 0.00 | 0.02 | 0.02 | 53 | 1010.9 |
| 20260506013804 | 64 | 295 | 15.0 | 31.0 | 0.00 | 0.02 | 0.02 | 53 | 1010.9 |
| 20260506013303 | 64 | 280 | 15.0 | 36.0 | 0.00 | 0.02 | 0.02 | 53 | 1010.9 |
| 20260506012804 | 64 | 287 | 15.0 | 32.0 | 0.00 | 0.02 | 0.02 | 52 | 1011.0 |
| 20260506012307 | 64 | 278 | 19.0 | 35.0 | 0.00 | 0.02 | 0.02 | 52 | 1010.8 |
| 20260506011803 | 65 | 273 | 15.0 | 29.0 | 0.00 | 0.02 | 0.02 | 52 | 1010.8 |
| 20260506010804 | 65 | 281 | 17.0 | 36.0 | 0.00 | 0.02 | 0.02 | 52 | 1010.8 |
| 20260506010304 | 65 | 267 | 16.0 | 29.0 | 0.00 | 0.01 | 0.01 | 52 | 1010.9 |
| 20260506005803 | 65 | 251 | 17.0 | 30.0 | 0.00 | 0.01 | 0.01 | 51 | 1011.0 |
| 20260506005305 | 65 | 268 | 17.0 | 32.0 | 0.00 | 0.01 | 0.01 | 51 | 1010.9 |
| 20260506004803 | 65 | 274 | 16.0 | 30.0 | 0.00 | 0.01 | 0.01 | 51 | 1011.0 |
| 20260506003803 | 65 | 280 | 17.0 | 29.0 | 0.00 | 0.01 | 0.01 | 51 | 1010.9 |
| 20260506003305 | 65 | 280 | 15.0 | 31.0 | 0.00 | 0.01 | 0.01 | 51 | 1010.8 |
| 20260506002306 | 66 | 277 | 20.0 | 33.0 | 0.00 | 0.01 | 0.01 | 51 | 1010.7 |
| 20260506001804 | 66 | 284 | 17.0 | 31.0 | 0.00 | 0.01 | 0.01 | 51 | 1011.0 |
| 20260506000804 | 66 | 263 | 18.0 | 33.0 | 0.00 | 0.01 | 0.01 | 51 | 1010.8 |
| 20260506000304 | 66 | 275 | 16.0 | 28.0 | 0.00 | 0.01 | 0.01 | 51 | 1010.9 |
| 20260505235305 | 66 | 292 | 17.0 | 28.0 | 0.00 | 0.01 | 0.01 | 50 | 1010.9 |
| 20260505234804 | 66 | 271 | 17.0 | 31.0 | 0.00 | 0.01 | 0.01 | 51 | 1011.0 |
| 20260505234303 | 66 | 270 | 18.0 | 30.0 | 0.00 | 0.01 | 0.01 | 51 | 1011.0 |
| 20260505233804 | 67 | 273 | 13.0 | 24.0 | 0.00 | 0.01 | 0.01 | 50 | 1011.1 |
| 20260505233303 | 66 | 274 | 18.0 | 33.0 | 0.00 | 0.01 | 0.01 | 50 | 1011.1 |
| 20260505232803 | 66 | 277 | 15.0 | 30.0 | 0.00 | 0.01 | 0.01 | 50 | 1011.3 |
| 20260505232305 | 66 | 272 | 19.0 | 33.0 | 0.00 | 0.01 | 0.01 | 50 | 1011.1 |
| 20260505231804 | 66 | 275 | 20.0 | 31.0 | 0.00 | 0.01 | 0.01 | 50 | 1011.1 |
| 20260505231304 | 66 | 266 | 16.0 | 30.0 | 0.00 | 0.01 | 0.01 | 50 | 1011.2 |
| 20260505230804 | 66 | 288 | 19.0 | 31.0 | 0.00 | 0.01 | 0.01 | 50 | 1011.2 |
| 20260505225804 | 67 | 267 | 16.0 | 26.0 | 0.00 | 0.01 | 0.01 | 50 | 1011.3 |
| 20260505225305 | 67 | 290 | 12.0 | 24.0 | 0.00 | 0.01 | 0.01 | 49 | 1011.3 |
| 20260505224805 | 67 | 273 | 13.0 | 21.0 | 0.00 | 0.01 | 0.01 | 49 | 1011.3 |
| 20260505202306 | 65 | 259 | 16.0 | 30.0 | 0.00 | 0.01 | 0.01 | 52 | 1012.3 |
| 20260505201803 | 65 | 279 | 14.0 | 30.0 | 0.00 | 0.01 | 0.01 | 52 | 1012.3 |
| 20260505201304 | 64 | 277 | 14.0 | 29.0 | 0.00 | 0.01 | 0.01 | 52 | 1012.3 |
| 20260505200804 | 64 | 259 | 13.0 | 31.0 | 0.00 | 0.01 | 0.01 | 52 | 1012.4 |
| 20260505200304 | 64 | 269 | 16.0 | 29.0 | 0.00 | 0.01 | 0.01 | 52 | 1012.4 |
| 20260505195804 | 64 | 260 | 16.0 | 31.0 | 0.00 | 0.01 | 0.01 | 53 | 1012.5 |
| 20260505194304 | 64 | 268 | 14.0 | 26.0 | 0.00 | 0.01 | 0.01 | 53 | 1012.6 |
| 20260505193804 | 63 | 292 | 12.0 | 35.0 | 0.00 | 0.01 | 0.01 | 53 | 1012.6 |
| 20260505193304 | 63 | 269 | 13.0 | 30.0 | 0.00 | 0.01 | 0.01 | 54 | 1012.8 |
| 20260505192803 | 63 | 285 | 14.0 | 35.0 | 0.00 | 0.01 | 0.01 | 54 | 1012.9 |
| 20260505192305 | 63 | 275 | 16.0 | 26.0 | 0.00 | 0.01 | 0.01 | 54 | 1012.8 |
| 20260505191804 | 63 | 277 | 13.0 | 28.0 | 0.00 | 0.01 | 0.01 | 54 | 1012.7 |
| 20260505190804 | 62 | 286 | 15.0 | 26.0 | 0.00 | 0.01 | 0.01 | 54 | 1012.7 |
| 20260505185804 | 62 | 271 | 14.0 | 25.0 | 0.00 | 0.01 | 0.01 | 54 | 1012.8 |
| 20260505185305 | 62 | 278 | 14.0 | 29.0 | 0.00 | 0.01 | 0.01 | 56 | 1012.9 |
| 20260505184804 | 62 | 280 | 17.0 | 31.0 | 0.00 | 0.01 | 0.01 | 55 | 1012.9 |
| 20260505184304 | 62 | 283 | 15.0 | 30.0 | 0.00 | 0.01 | 0.01 | 55 | 1012.8 |
| 20260505183803 | 61 | 280 | 13.0 | 33.0 | 0.00 | 0.01 | 0.01 | 55 | 1013.0 |
| 20260505182306 | 61 | 267 | 14.0 | 29.0 | 0.00 | 0.01 | 0.01 | 56 | 1013.0 |
| 20260505181304 | 60 | 289 | 18.0 | 31.0 | 0.00 | 0.01 | 0.01 | 57 | 1012.9 |
| 20260505180804 | 60 | 264 | 16.0 | 29.0 | 0.00 | 0.01 | 0.01 | 58 | 1013.1 |
| 20260505180304 | 60 | 267 | 15.0 | 38.0 | 0.00 | 0.01 | 0.01 | 58 | 1013.1 |
| 20260505175305 | 60 | 290 | 17.0 | 28.0 | 0.00 | 0.01 | 0.01 | 58 | 1013.1 |
| 20260505174804 | 60 | 273 | 17.0 | 28.0 | 0.00 | 0.01 | 0.01 | 58 | 1013.2 |
| 20260505174303 | 60 | 271 | 16.0 | 29.0 | 0.00 | 0.01 | 0.01 | 59 | 1013.1 |
| 20260505173804 | 60 | 266 | 18.0 | 33.0 | 0.00 | 0.01 | 0.01 | 59 | 1013.0 |
| 20260505173304 | 60 | 279 | 15.0 | 30.0 | 0.00 | 0.01 | 0.01 | 59 | 1013.1 |
| 20260505172804 | 59 | 274 | 15.0 | 31.0 | 0.00 | 0.01 | 0.01 | 60 | 1013.1 |
| 20260505172306 | 59 | 281 | 17.0 | 31.0 | 0.00 | 0.01 | 0.01 | 60 | 1013.1 |
| 20260505171804 | 59 | 267 | 17.0 | 32.0 | 0.00 | 0.01 | 0.01 | 60 | 1013.1 |
| 20260505171304 | 59 | 266 | 14.0 | 29.0 | 0.00 | 0.01 | 0.01 | 60 | 1013.2 |
| 20260505170804 | 59 | 281 | 16.0 | 33.0 | 0.00 | 0.01 | 0.01 | 61 | 1013.0 |
| 20260505170304 | 59 | 274 | 15.0 | 25.0 | 0.00 | 0.01 | 0.01 | 61 | 1013.1 |
| 20260505165804 | 59 | 276 | 12.0 | 30.0 | 0.00 | 0.01 | 0.01 | 61 | 1013.0 |
| 20260505165306 | 58 | 273 | 17.0 | 29.0 | 0.00 | 0.01 | 0.01 | 61 | 1013.0 |
| 20260505164804 | 58 | 280 | 12.0 | 30.0 | 0.00 | 0.01 | 0.01 | 62 | 1013.0 |
| 20260505164304 | 58 | 268 | 14.0 | 32.0 | 0.00 | 0.01 | 0.01 | 62 | 1013.0 |
| 20260505163804 | 58 | 282 | 15.0 | 26.0 | 0.00 | 0.01 | 0.01 | 62 | 1013.0 |
| 20260505163304 | 58 | 264 | 16.0 | 31.0 | 0.00 | 0.01 | 0.01 | 62 | 1013.0 |
| 20260505162803 | 58 | 239 | 17.0 | 30.0 | 0.00 | 0.01 | 0.01 | 62 | 1012.8 |
| 20260505161804 | 58 | 272 | 12.0 | 23.0 | 0.00 | 0.01 | 0.01 | 62 | 1012.9 |
| 20260505161304 | 58 | 255 | 17.0 | 29.0 | 0.00 | 0.01 | 0.01 | 62 | 1012.9 |
| 20260505160805 | 58 | 246 | 18.0 | 31.0 | 0.00 | 0.01 | 0.01 | 62 | 1012.8 |
| 20260505160304 | 58 | 275 | 12.0 | 29.0 | 0.00 | 0.01 | 0.01 | 63 | 1012.9 |
| 20260505153304 | 57 | 271 | 16.0 | 31.0 | 0.00 | 0.01 | 0.01 | 63 | 1012.7 |
| 20260505152804 | 57 | 264 | 18.0 | 26.0 | 0.00 | 0.01 | 0.01 | 63 | 1012.6 |
| 20260505151804 | 57 | 277 | 15.0 | 31.0 | 0.00 | 0.01 | 0.01 | 63 | 1012.6 |
| 20260505151305 | 57 | 276 | 14.0 | 28.0 | 0.00 | 0.01 | 0.01 | 64 | 1012.5 |
| 20260505150805 | 57 | 279 | 14.0 | 32.0 | 0.00 | 0.01 | 0.01 | 64 | 1012.5 |
| 20260505150304 | 57 | 281 | 16.0 | 30.0 | 0.00 | 0.01 | 0.01 | 64 | 1012.5 |
| 20260505140304 | 56 | 270 | 14.0 | 26.0 | 0.00 | 0.01 | 0.01 | 65 | 1012.0 |
| 20260505130304 | 56 | 267 | 19.0 | 28.0 | 0.00 | 0.01 | 0.01 | 64 | 1011.5 |
| 20260505124304 | 56 | 276 | 15.0 | 28.0 | 0.00 | 0.01 | 0.01 | 65 | 1011.3 |
| 20260505123804 | 57 | 271 | 17.0 | 28.0 | 0.00 | 0.01 | 0.01 | 63 | 1011.3 |
| 20260505123304 | 57 | 268 | 18.0 | 36.0 | 0.00 | 0.01 | 0.01 | 64 | 1011.2 |
| 20260505122804 | 57 | 270 | 18.0 | 31.0 | 0.00 | 0.01 | 0.01 | 62 | 1011.1 |
| 20260505122305 | 57 | 279 | 14.0 | 31.0 | 0.00 | 0.01 | 0.01 | 63 | 1011.2 |